Regional Weather Roundup
Issued by NWS

Home | Current Version | Previous Version | Graphics & Text | Print | Product List | Glossary On
Versions: 1 2 3 4 5 6 7 8 9 10 11 12 13 14 15 16 17 18 19 20 21 22 23 24 25 26 27 28 29 30 31 32 33 34 35 36 37 38 39 40 41 42 43 44 45 46 47 48 49 50
000
ASUS43 KLOT 012108
RWRIL

ILLINOIS REGIONAL WEATHER ROUNDUP
NATIONAL WEATHER SERVICE CHICAGO/ROMEOVILLE IL
400 PM CDT WED APR 01 2015

NOTE: "FAIR" INDICATES FEW OR NO CLOUDS BELOW 12,000 FEET WITH NO
SIGNIFICANT WEATHER AND/OR OBSTRUCTIONS TO VISIBILITY.

* THESE STATIONS ARE NOT UNDER NWS QUALITY CONTROL. THEY ALSO MAY NOT
  REPORT WEATHER SUCH AS PRECIPITATION OR FOG.

ILZ001-002-007-009-015-016-024-012200-
NORTHWEST ILLINOIS

CITY           SKY/WX    TMP DP  RH WIND       PRES   REMARKS
MOLINE         SUNNY     79  31  17 S23G31    29.81F
STERLING*      SUNNY     77  37  24 S7G22     29.85F
SAVANNA*       SUNNY     80  31  16 S24G30    29.81F
$$

ILZ003-004-008-010-011-017-018-012200-
NORTH CENTRAL ILLINOIS

CITY           SKY/WX    TMP DP  RH WIND       PRES   REMARKS
ROCKFORD       MOSUNNY   77  33  20 S20G30    29.86F
FREEPORT*      SUNNY     75  36  24 S22G30    29.85F
ROCHELLE*      SUNNY     76  36  24 S18G28    29.87F
DE KALB*       SUNNY     73  37  26 S22G31    29.89F
PERU*          SUNNY     76  35  22 S24       29.89F
$$

ILZ005-006-012>014-019>023-012200-
NORTHEAST ILLINOIS

CITY           SKY/WX    TMP DP  RH WIND       PRES   REMARKS
CHICAGO-OHARE  MOSUNNY   72  36  26 S20       29.90F
CHICAGO-MIDWAY MOSUNNY   74  36  25 S21G29    29.92F
AURORA         SUNNY     76  36  23 S20G26    29.90F
LANSING*       SUNNY     71  33  24 SW17      29.95F
JOLIET*        SUNNY     75  38  26 S13G20    29.92F
WAUKEGAN       SUNNY     56  38  50 SE14      29.90F
DUPAGE AIRPORT SUNNY     73  36  25 S15G26    29.90F
KANKAKEE*      SUNNY     73  40  30 S15G21    29.96F
WHEELING       SUNNY     73  34  23 SW14G26   29.91F
MORRIS*        SUNNY     75  36  24 S21       29.91F
ROMEOVILLE*    SUNNY     73  35  25 S16G24    29.92F
NORTHERLY ISL    N/A     51  37  58 CALM        N/A
$$

LMZ740>746-012200-
SOUTHERN LAKE MICHIGAN

STATION/POSITION SKY/WX   TEMP    WIND        PRES    VSBY  WAVE
                          AIR SEA DIR/SP/G                  HT/PER
                          (F)     (DEG/KT/KT) (MB)    (MI)  (FT/S)
HARRISON CRIB              44     170/  5/  9   N/A
BURNHAM HARBOR             52      70/  3/  5   N/A
CALUMET HARBOR             69     190/ 12/ 19 1013.2F
BURNS HARBOR               68     190/ 11/ 21 1014.9F
MICHIGAN CITY              49      30/ 10/ 12   N/A
$$

ILZ025>027-034>036-040-047-049-050-058-095>099-012200-
WEST-CENTRAL ILLINOIS

CITY           SKY/WX    TMP DP  RH WIND       PRES   REMARKS
QUINCY         MOSUNNY   76  33  21 S22       29.85F
GALESBURG*     SUNNY     77  37  23 S22G28    29.86F
MACOMB*        MOSUNNY   76  33  20 S22G30    29.88F
JACKSONVILLE*  MOSUNNY   76  36  23 SE20G26   29.90F
PITTSFIELD*    PTSUNNY   77  37  24 SE23G29   29.88F
$$

ILZ028>032-037-038-041>044-048-051>054-059>061-012200-
CENTRAL ILLINOIS

CITY           SKY/WX    TMP DP  RH WIND       PRES   REMARKS
PONTIAC        SUNNY     76  39  26 S18G25    29.94F
BLOOMINGTON    SUNNY     76  41  28 S20G28    29.95F
DECATUR        MOSUNNY   73  40  30 S18G26    29.96F
PEORIA         SUNNY     78  37  22 S22G30    29.89F
LACON*         SUNNY     76  35  22 S15G24    29.88F
LINCOLN*       SUNNY     75  39  27 S14G21    29.92F
SPRINGFIELD    SUNNY     76  42  29 S22G29    29.92F
TAYLORVILLE    SUNNY     72  41  33 SE18      29.95F
$$

ILZ033-039-045-046-055>057-062-063-012200-
EAST-CENTRAL ILLINOIS

CITY           SKY/WX    TMP DP  RH WIND       PRES   REMARKS
CHAMPAIGN      SUNNY     73  36  25 S17G24    29.97F
DANVILLE*      SUNNY     69  39  32 S14       29.98S
RANTOUL*       SUNNY     73  37  27 S14G22    29.97F
MATTOON        MOSUNNY   70  40  33 S15G22    29.99F
PARIS*         MOSUNNY   70  42  36 S14       30.02S
$$

ILZ079-100>102-012200-
SOUTHWEST ILLINOIS

CITY           SKY/WX    TMP DP  RH WIND       PRES   REMARKS
ALTON          PTSUNNY   73  27  17 SE20      29.93F
BELLEVILLE     MOSUNNY   76  39  26 SE21      29.93F
CAHOKIA*       MOSUNNY   77  38  24 SE18G29   29.92F
SPARTA*        MOSUNNY   74  39  27 S13G21    29.96F
$$

ILZ064>066-069>071-074>076-080>082-084>086-088>090-092>094-012200-
SOUTH-CENTRAL ILLINOIS

CITY           SKY/WX    TMP DP  RH WIND       PRES   REMARKS
CARBONDALE     MOSUNNY   76  37  24 SE13      29.96F
CAIRO*         MOSUNNY   75  41  29 SE15      29.97F
EFFINGHAM*     SUNNY     72  35  26 SE10G16   30.00F
MARION         PTSUNNY   77  34  20 S17       29.99F
MT. VERNON     MOSUNNY   75  39  27 SE15      29.99F
CENTRALIA*     MOSUNNY   74  37  26 SE16      29.97F
SALEM*         MOSUNNY   76  33  20 S15G21    29.98F
METROPOLIS*    MOSUNNY   77  38  24 E7        29.98F
$$

ILZ067-068-072-073-078-083-087-091-012200-
SOUTHEAST ILLINOIS

CITY           SKY/WX    TMP DP  RH WIND       PRES   REMARKS
LAWRENCEVILLE  MOSUNNY   72  38  29 SE15      30.02F
FLORA*         MOSUNNY   72  40  30 S10       30.01S
FAIRFIELD*     PTSUNNY   72  41  32 S13       30.00S
HARRISBURG*    MOSUNNY   75  40  27 SE12G17   30.00F
ROBINSON*      MOSUNNY   72  37  27 S9        30.02F
CARMI*         MOSUNNY   73  30  20 SE12      30.01S
$$

ABBREVIATIONS USED IN REMARKS
   TC - TEMPERATURE IN CELSIUS
  WCI - WIND CHILL INDEX
   HX - HEAT INDEX
  VSB - VISIBILITY
$$




USA.gov is the U.S. government's official web portal to all federal, state and local government web resources and services.